Location: Finnegan
(51.1333°N, 112.0833°W)
Time: 20:31:02
(UTC+00:00)

Envisat - Pass Details

Date: 08 December 2021
Orbit: 764 x 766 km, 98.2° (Epoch: 26 January)

Event Time Altitude Azimuth Distance (km) Brightness Sun altitude
Rises 11:22:48 0° 25° (NNE) 3,246 6.6 -35.8°
Reaches altitude 10° 11:25:41 10° 41° (NE) 2,314 6.0 -35.4°
Maximum altitude 11:29:30 21° 90° (E) 1,675 5.3 -34.8°
Drops below altitude 10° 11:33:18 10° 138° (SE) 2,300 5.8 -34.2°
Sets 11:36:08 0° 155° (SSE) 3,220 6.5 -33.7°
